 day,  time,  air_temp(C),  RH(%),  ground_temp10cm(C),  ground_temp20cm(C),  ground_temp40cm(C),  precipitation(mm/h),  Solar_Radiation(MJ/m2h),  lack, 
 02/08/01, 01:00,  19.2,  99,  24.1,  23.9,  21.8,   0.0,  0.00, 
 02/08/01, 02:00,  19.2,  99,  23.8,  23.9,  21.8,   0.0,  0.00, 
 02/08/01, 03:00,  19.2,  99,  23.5,  23.8,  21.9,   0.0,  0.00, 
 02/08/01, 04:00,  19.4,  99,  23.3,  23.7,  21.9,   0.0,  0.00, 
 02/08/01, 05:00,  19.2,  99,  23.1,  23.6,  21.9,   0.0,  0.00, 
 02/08/01, 06:00,  19.2,  99,  23.0,  23.5,  21.9,   0.0,  0.07, 
 02/08/01, 07:00,  20.0,  98,  22.9,  23.4,  21.9,   0.0,  0.27, 
 02/08/01, 08:00,  21.0,  91,  22.9,  23.3,  21.9,   0.0,  0.47, 
 02/08/01, 09:00,  21.0,  96,  23.0,  23.2,  21.9,   0.0,  1.11, 
 02/08/01, 10:00,  23.8,  83,  23.3,  23.1,  21.9,   0.0,  2.26, 
 02/08/01, 11:00,  25.5,  69,  23.9,  23.1,  21.9,   0.0,  2.39, 
 02/08/01, 12:00,  25.5,  66,  24.8,  23.1,  21.9,   0.0,  2.76, 
 02/08/01, 13:00,  26.5,  64,  25.8,  23.2,  21.9,   0.0,  3.30, 
 02/08/01, 14:00,  26.1,  72,  26.0,  23.2,  21.9,   0.0,  2.43, 
 02/08/01, 15:00,  25.0,  78,  26.1,  23.5,  21.9,   0.0,  1.04, 
 02/08/01, 16:00,  24.5,  81,  26.0,  23.6,  21.9,   0.0,  1.20, 
 02/08/01, 17:00,  24.4,  76,  26.1,  23.8,  21.9,   0.0,  1.02, 
 02/08/01, 18:00,  22.2,  98,  26.0,  23.9,  21.9,   0.0,  0.24, 
 02/08/01, 19:00,  20.9,  94,  25.8,  24.0,  21.9,   0.0,  0.05, 
 02/08/01, 20:00,  20.6,  92,  25.3,  24.0,  21.9,   0.0,  0.00, 
 02/08/01, 21:00,  20.6,  91,  24.9,  24.0,  21.9,   0.0,  0.00, 
 02/08/01, 22:00,  20.1,  90,  24.6,  24.0,  21.9,   0.0,  0.00, 
 02/08/01, 23:00,  20.4,  83,  24.2,  24.0,  21.9,   0.0,  0.00, 
 02/08/02, 00:00,  20.1,  84,  23.9,  23.9,  21.9,   0.0,  0.00, 
 02/08/02, 01:00,  19.0,  92,  23.7,  23.8,  21.9,   0.0,  0.00, 
 02/08/02, 02:00,  19.2,  89,  23.5,  23.7,  21.9,   0.0,  0.00, 
 02/08/02, 03:00,  17.7,  98,  23.2,  23.6,  21.9,   0.0,  0.00, 
 02/08/02, 04:00,  16.7,  99,  23.0,  23.5,  22.0,   0.0,  0.00, 
 02/08/02, 05:00,  17.8,  97,  22.7,  23.4,  22.0,   0.0,  0.00, 
 02/08/02, 06:00,  17.4,  98,  22.4,  23.2,  22.0,   0.0,  0.08, 
 02/08/02, 07:00,  19.9,  95,  22.3,  23.2,  22.0,   0.0,  0.72, 
 02/08/02, 08:00,  20.1,  92,  22.3,  23.1,  22.0,   0.0,  1.41, 
 02/08/02, 09:00,  22.8,  77,  22.7,  23.0,  22.0,   0.0,  2.18, 
 02/08/02, 10:00,  22.1,  79,  23.2,  22.9,  22.0,   0.0,  1.53, 
 02/08/02, 11:00,  20.1,  97,  23.6,  22.9,  22.0,   0.0,  0.99, 
 02/08/02, 12:00,  19.4,  95,  23.8,  22.9,  21.9,   0.0,  0.83, 
 02/08/02, 13:00,  19.6,  99,  23.9,  22.9,  21.9,   0.0,  0.90, 
 02/08/02, 14:00,  21.7,  85,  24.0,  23.0,  21.9,   0.0,  1.98, 
 02/08/02, 15:00,  21.2,  90,  24.0,  23.0,  21.9,   0.0,  1.41, 
 02/08/02, 16:00,  20.0,  89,  24.2,  23.1,  21.9,   0.0,  1.00, 
 02/08/02, 17:00,  19.5,  95,  24.1,  23.1,  21.9,   0.0,  0.32, 
 02/08/02, 18:00,  19.4,  95,  24.0,  23.2,  21.9,   0.0,  0.31, 
 02/08/02, 19:00,  18.9,  96,  23.8,  23.2,  21.9,   0.0,  0.05, 
 02/08/02, 20:00,  18.7,  95,  23.6,  23.2,  21.9,   0.0,  0.00, 
 02/08/02, 21:00,  19.0,  93,  23.3,  23.2,  21.9,   0.0,  0.00, 
 02/08/02, 22:00,  17.8,  98,  23.1,  23.1,  21.9,   0.0,  0.00, 
 02/08/02, 23:00,  18.8,  90,  22.8,  23.1,  21.9,   0.0,  0.00, 
 02/08/03, 00:00,  18.5,  90,  22.6,  23.0,  21.9,   0.0,  0.00, 
 02/08/03, 01:00,  16.6,  92,  22.3,  22.9,  21.9,   0.0,  0.00, 
 02/08/03, 02:00,  17.2,  81,  21.9,  22.8,  21.8,   0.0,  0.00, 
 02/08/03, 03:00,  17.1,  81,  21.7,  22.7,  21.8,   0.0,  0.00, 
 02/08/03, 04:00,  15.6,  93,  21.4,  22.6,  21.8,   0.0,  0.00, 
 02/08/03, 05:00,  15.4,  94,  21.1,  22.5,  21.8,   0.0,  0.00, 
 02/08/03, 06:00,  16.5,  92,  20.8,  22.3,  21.8,   0.0,  0.06, 
 02/08/03, 07:00,  18.8,  84,  20.7,  22.2,  21.8,   0.0,  0.81, 
 02/08/03, 08:00,  19.6,  82,  20.9,  22.0,  21.8,   0.0,  1.56, 
 02/08/03, 09:00,  20.9,  80,  21.4,  22.0,  21.8,   0.0,  2.31, 
 02/08/03, 10:00,  22.1,  77,  22.0,  22.0,  21.8,   0.0,  2.85, 
 02/08/03, 11:00,  23.3,  73,  22.9,  21.8,  21.8,   0.0,  2.68, 
 02/08/03, 12:00,  22.7,  76,  23.9,  22.0,  21.7,   0.0,  1.96, 
 02/08/03, 13:00,  23.0,  74,  24.5,  22.0,  21.7,   0.0,  1.41, 
 02/08/03, 14:00,  24.9,  64,  24.7,  22.3,  21.7,   0.0,  2.74, 
 02/08/03, 15:00,  25.6,  64,  24.7,  22.5,  21.7,   0.0,  2.91, 
 02/08/03, 16:00,  24.2,  64,  24.8,  22.7,  21.8,   0.0,  2.17, 
 02/08/03, 17:00,  23.0,  76,  25.1,  22.8,  21.6,   0.0,  1.46, 
 02/08/03, 18:00,  21.5,  86,  25.0,  22.9,  21.7,   0.0,  0.74, 
 02/08/03, 19:00,  20.1,  90,  24.7,  23.0,  21.6,   0.0,  0.11, 
 02/08/03, 20:00,  18.4,  98,  24.3,  23.1,  21.6,   0.0,  0.00, 
 02/08/03, 21:00,  17.9,  99,  23.9,  23.1,  21.6,   0.0,  0.00, 
 02/08/03, 22:00,  17.9,  99,  23.5,  23.1,  21.6,   0.0,  0.00, 
 02/08/03, 23:00,  18.5,  99,  23.2,  23.1,  21.6,   0.0,  0.00, 
 02/08/04, 00:00,  18.0,  99,  22.9,  23.0,  21.6,   0.0,  0.00, 
 02/08/04, 01:00,  18.1,  99,  22.7,  22.9,  21.6,   0.0,  0.00, 
 02/08/04, 02:00,  18.7,  95,  22.5,  22.9,  21.7,   0.0,  0.00, 
 02/08/04, 03:00,  17.9,  99,  22.3,  22.8,  21.7,   0.0,  0.00, 
 02/08/04, 04:00,  17.8,  98,  22.2,  22.7,  21.7,   0.0,  0.00, 
 02/08/04, 05:00,  17.8,  98,  22.0,  22.6,  21.7,   0.0,  0.00, 
 02/08/04, 06:00,  17.3,  98,  21.8,  22.5,  21.7,   0.0,  0.07, 
 02/08/04, 07:00,  19.2,  94,  21.6,  22.4,  21.7,   0.0,  0.37, 
 02/08/04, 08:00,  20.6,  93,  21.6,  22.3,  21.7,   0.0,  0.86, 
 02/08/04, 09:00,  22.8,  80,  21.9,  22.2,  21.7,   0.0,  2.15, 
 02/08/04, 10:00,  21.3,  85,  22.5,  22.2,  21.7,   0.0,  1.98, 
 02/08/04, 11:00,  22.9,  80,  23.2,  22.2,  21.6,   0.0,  2.32, 
 02/08/04, 12:00,  23.4,  78,  23.8,  22.2,  21.6,   0.0,  2.16, 
 02/08/04, 13:00,  24.9,  71,  24.4,  22.3,  21.6,   0.0,  2.45, 
 02/08/04, 14:00,  24.9,  65,  24.7,  22.5,  21.6,   0.0,  2.45, 
 02/08/04, 15:00,  23.9,  78,  24.8,  22.6,  21.7,   0.0,  1.04, 
 02/08/04, 16:00,  23.7,  80,  24.7,  22.8,  21.6,   0.0,  1.11, 
 02/08/04, 17:00,  21.7,  84,  24.8,  22.9,  21.6,   0.0,  0.73, 
 02/08/04, 18:00,  19.2,  99,  24.5,  23.0,  21.7,   9.5,  0.02, 
 02/08/04, 19:00,  18.2,  99,  23.9,  23.1,  21.6,   6.0,  0.00, 
 02/08/04, 20:00,  17.6,  99,  23.5,  23.1,  21.6,   1.0,  0.00, 
 02/08/04, 21:00,  18.5,  94,  23.1,  23.1,  21.6,   0.5,  0.00, 
 02/08/04, 22:00,  18.1,  97,  22.9,  23.0,  21.6,   0.0,  0.00, 
 02/08/04, 23:00,  18.9,  86,  22.6,  22.9,  21.6,   0.0,  0.00, 
 02/08/05, 00:00,  16.1,  99,  22.4,  22.9,  21.6,   0.0,  0.00, 
 02/08/05, 01:00,  15.7,  99,  22.1,  22.8,  21.6,   0.0,  0.00, 
 02/08/05, 02:00,  16.6,  99,  21.9,  22.7,  21.7,   0.0,  0.00, 
 02/08/05, 03:00,  16.0,  99,  21.6,  22.6,  21.7,   0.0,  0.00, 
 02/08/05, 04:00,  15.7,  99,  21.4,  22.5,  21.7,   0.0,  0.00, 
 02/08/05, 05:00,  15.8,  99,  21.1,  22.2,  21.7,   0.0,  0.00, 
 02/08/05, 06:00,  16.0,  99,  20.9,  22.2,  21.7,   0.5,  0.08, 
 02/08/05, 07:00,  18.3,  99,  20.8,  22.0,  21.7,   0.0,  0.65, 
 02/08/05, 08:00,  19.7,  96,  20.9,  22.0,  21.7,   0.0,  1.47, 
 02/08/05, 09:00,  21.6,  86,  21.4,  21.8,  21.6,   0.0,  2.19, 
 02/08/05, 10:00,  22.3,  89,  22.0,  21.8,  21.6,   0.0,  2.86, 
 02/08/05, 11:00,  23.4,  86,  22.9,  21.8,  21.6,   0.0,  2.94, 
 02/08/05, 12:00,  23.8,  74,  23.9,  21.8,  21.6,   0.0,  2.86, 
 02/08/05, 13:00,  24.4,  76,  24.8,  21.9,  21.6,   0.0,  2.67, 
 02/08/05, 14:00,  26.0,  68,  25.2,  22.1,  21.6,   0.0,  2.88, 
 02/08/05, 15:00,  24.4,  72,  25.4,  22.5,  21.5,   0.0,  1.58, 
 02/08/05, 16:00,  24.1,  66,  25.2,  22.7,  21.5,   0.0,  1.42, 
 02/08/05, 17:00,  22.8,  67,  25.3,  22.9,  21.5,   0.0,  0.99, 
 02/08/05, 18:00,  22.1,  77,  25.2,  23.0,  21.5,   0.0,  0.44, 
 02/08/05, 19:00,  20.3,  84,  24.9,  23.1,  21.5,   0.0,  0.11, 
 02/08/05, 20:00,  19.0,  82,  24.6,  23.2,  21.5,   0.0,  0.00, 
 02/08/05, 21:00,  18.9,  75,  24.1,  23.2,  21.5,   0.0,  0.00, 
 02/08/05, 22:00,  19.1,  83,  23.7,  23.2,  21.5,   0.0,  0.00, 
 02/08/05, 23:00,  19.5,  88,  23.3,  23.2,  21.5,   0.0,  0.00, 
 02/08/06, 00:00,  19.2,  91,  22.9,  23.1,  21.6,   0.0,  0.00, 
 02/08/06, 01:00,  19.0,  95,  22.6,  23.0,  21.6,   0.0,  0.00, 
 02/08/06, 02:00,  18.7,  98,  22.4,  22.9,  21.6,   0.0,  0.00, 
 02/08/06, 03:00,  19.0,  96,  22.3,  22.8,  21.6,   0.0,  0.00, 
 02/08/06, 04:00,  18.7,  93,  22.1,  22.7,  21.6,   0.0,  0.00, 
 02/08/06, 05:00,  18.0,  98,  21.9,  22.6,  21.6,   0.0,  0.00, 
 02/08/06, 06:00,  17.7,  99,  21.7,  22.5,  21.6,   0.0,  0.07, 
 02/08/06, 07:00,  20.9,  88,  21.6,  22.4,  21.6,   0.0,  0.70, 
 02/08/06, 08:00,  21.2,  86,  21.7,  22.3,  21.6,   0.0,  1.19, 
 02/08/06, 09:00,  23.3,  79,  22.0,  22.2,  21.6,   0.0,  2.15, 
 02/08/06, 10:00,  24.4,  76,  22.6,  22.1,  21.6,   0.0,  2.70, 
 02/08/06, 11:00,  26.3,  69,  23.3,  22.2,  21.6,   0.0,  2.90, 
 02/08/06, 12:00,  26.9,  64,  24.4,  22.2,  21.6,   0.0,  3.33, 
 02/08/06, 13:00,  27.4,  57,  25.5,  22.4,  21.6,   0.0,  3.45, 
 02/08/06, 14:00,  27.8,  58,  25.9,  22.6,  21.6,   0.0,  2.69, 
 02/08/06, 15:00,  28.4,  52,  25.8,  22.8,  21.6,   0.0,  2.72, 
 02/08/06, 16:00,  27.0,  58,  25.8,  23.0,  21.6,   0.0,  2.19, 
 02/08/06, 17:00,  26.6,  63,  26.0,  23.2,  21.6,   0.0,  1.54, 
 02/08/06, 18:00,  23.9,  72,  25.9,  23.3,  21.7,   0.0,  0.75, 
 02/08/06, 19:00,  22.1,  78,  25.5,  23.4,  21.7,   0.0,  0.15, 
 02/08/06, 20:00,  20.9,  80,  25.1,  23.5,  21.6,   0.0,  0.00, 
 02/08/06, 21:00,  19.6,  88,  24.7,  23.5,  21.7,   0.0,  0.00, 
 02/08/06, 22:00,  19.8,  86,  24.3,  23.5,  21.7,   0.0,  0.00, 
 02/08/06, 23:00,  19.2,  91,  23.9,  23.5,  21.6,   0.0,  0.00, 
 02/08/07, 00:00,  19.2,  89,  23.5,  23.5,  21.6,   0.0,  0.00, 
 02/08/07, 01:00,  18.8,  86,  23.2,  23.4,  21.6,   0.0,  0.00, 
 02/08/07, 02:00,  18.6,  85,  22.9,  23.3,  21.7,   0.0,  0.00, 
 02/08/07, 03:00,  18.5,  91,  22.6,  23.2,  21.7,   0.0,  0.00, 
 02/08/07, 04:00,  18.1,  84,  22.3,  23.1,  21.7,   0.0,  0.00, 
 02/08/07, 05:00,  18.1,  85,  22.1,  23.0,  21.7,   0.0,  0.00, 
 02/08/07, 06:00,  17.8,  90,  21.9,  22.8,  21.7,   0.0,  0.07, 
 02/08/07, 07:00,  21.3,  82,  21.7,  22.7,  21.7,   0.0,  0.75, 
 02/08/07, 08:00,  22.5,  76,  21.9,  22.6,  21.7,   0.0,  1.51, 
 02/08/07, 09:00,  24.5,  66,  22.3,  22.5,  21.7,   0.0,  2.21, 
 02/08/07, 10:00,  24.6,  71,  22.9,  22.4,  21.7,   0.0,  2.64, 
 02/08/07, 11:00,  23.7,  72,  23.7,  22.4,  21.8,   0.0,  2.04, 
 02/08/07, 12:00,  24.6,  68,  24.2,  22.5,  21.7,   0.0,  1.59, 
 02/08/07, 13:00,  24.4,  66,  24.7,  22.6,  21.8,   0.0,  2.58, 
 02/08/07, 14:00,  27.3,  57,  25.0,  22.7,  21.8,   0.0,  2.65, 
 02/08/07, 15:00,  26.3,  59,  25.0,  22.9,  21.8,   0.0,  2.28, 
 02/08/07, 16:00,  26.6,  59,  25.0,  23.0,  21.8,   0.0,  1.98, 
 02/08/07, 17:00,  24.9,  66,  25.2,  23.1,  21.7,   0.0,  1.48, 
 02/08/07, 18:00,  23.0,  74,  25.2,  23.2,  21.8,   0.0,  0.73, 
 02/08/07, 19:00,  21.7,  77,  24.9,  23.3,  21.7,   0.0,  0.11, 
 02/08/07, 20:00,  21.2,  79,  24.5,  23.4,  21.7,   0.0,  0.00, 
 02/08/07, 21:00,  20.9,  81,  24.1,  23.4,  21.8,   0.0,  0.00, 
 02/08/07, 22:00,  20.0,  87,  23.7,  23.4,  21.7,   0.0,  0.00, 
 02/08/07, 23:00,  19.5,  89,  23.4,  23.2,  21.7,   0.0,  0.00, 
 02/08/08, 00:00,  18.8,  91,  23.1,  23.3,  21.7,   0.0,  0.00, 
 02/08/08, 01:00,  19.4,  89,  22.8,  23.2,  21.7,   0.0,  0.00, 
 02/08/08, 02:00,  18.9,  90,  22.6,  23.1,  21.7,   0.0,  0.00, 
 02/08/08, 03:00,  17.9,  95,  22.3,  23.0,  21.8,   0.0,  0.00, 
 02/08/08, 04:00,  18.2,  94,  22.1,  22.9,  21.7,   0.0,  0.00, 
 02/08/08, 05:00,  17.8,  95,  21.9,  22.8,  21.8,   0.0,  0.00, 
 02/08/08, 06:00,  18.4,  90,  21.7,  22.7,  21.8,   0.0,  0.05, 
 02/08/08, 07:00,  20.4,  77,  21.6,  22.6,  21.8,   0.0,  0.78, 
 02/08/08, 08:00,  21.4,  73,  21.7,  22.5,  21.8,   0.0,  1.54, 
 02/08/08, 09:00,  23.3,  68,  22.1,  22.4,  21.8,   0.0,  2.25, 
 02/08/08, 10:00,  24.9,  65,  22.7,  22.3,  21.8,   0.0,  2.77, 
 02/08/08, 11:00,  23.9,  68,  23.5,  22.3,  21.7,   0.0,  2.17, 
 02/08/08, 12:00,  22.6,  71,  24.2,  22.4,  21.7,   0.0,  1.69, 
 02/08/08, 13:00,  25.9,  63,  24.6,  22.5,  21.7,   0.0,  1.87, 
 02/08/08, 14:00,  26.0,  60,  24.8,  22.6,  21.7,   0.0,  2.70, 
 02/08/08, 15:00,  24.6,  66,  24.8,  22.8,  21.7,   0.0,  1.24, 
 02/08/08, 16:00,  24.8,  67,  24.8,  22.9,  21.7,   0.0,  1.63, 
 02/08/08, 17:00,  24.7,  68,  24.9,  23.0,  21.7,   0.0,  1.23, 
 02/08/08, 18:00,  21.9,  74,  24.8,  23.1,  21.7,   0.0,  0.42, 
 02/08/08, 19:00,  20.9,  79,  24.5,  23.2,  21.7,   0.0,  0.05, 
 02/08/08, 20:00,  20.0,  87,  24.2,  23.2,  21.7,   0.0,  0.00, 
 02/08/08, 21:00,  19.7,  88,  23.9,  23.3,  21.7,   0.0,  0.00, 
 02/08/08, 22:00,  19.2,  90,  23.6,  23.2,  21.7,   0.0,  0.00, 
 02/08/08, 23:00,  18.5,  90,  23.3,  23.2,  21.7,   0.0,  0.00, 
 02/08/09, 00:00,  18.3,  89,  23.1,  23.1,  21.7,   0.0,  0.00, 
 02/08/09, 01:00,  18.8,  85,  22.8,  23.1,  21.7,   0.0,  0.00, 
 02/08/09, 02:00,  18.0,  89,  22.6,  23.0,  21.7,   0.0,  0.00, 
 02/08/09, 03:00,  17.6,  93,  22.4,  22.9,  21.7,   0.0,  0.00, 
 02/08/09, 04:00,  18.5,  87,  22.2,  22.8,  21.7,   0.0,  0.00, 
 02/08/09, 05:00,  18.5,  87,  22.0,  22.7,  21.7,   0.0,  0.00, 
 02/08/09, 06:00,  18.6,  88,  21.8,  22.6,  21.8,   0.0,  0.03, 
 02/08/09, 07:00,  19.9,  85,  21.8,  22.5,  21.8,   0.0,  0.29, 
 02/08/09, 08:00,  20.5,  84,  21.8,  22.4,  21.8,   0.0,  0.71, 
 02/08/09, 09:00,  20.7,  84,  21.8,  22.3,  21.7,   0.0,  1.10, 
 02/08/09, 10:00,  20.8,  89,  22.1,  22.2,  21.7,   0.0,  0.92, 
 02/08/09, 11:00,  22.1,  85,  22.4,  22.2,  21.7,   0.0,  1.55, 
 02/08/09, 12:00,  20.7,  98,  22.8,  22.2,  21.7,   0.0,  0.69, 
 02/08/09, 13:00,  19.7,  98,  22.9,  22.2,  21.7,   0.0,  0.54, 
 02/08/09, 14:00,  20.3,  99,  23.0,  22.3,  21.7,   0.0,  0.53, 
 02/08/09, 15:00,  19.6,  99,  23.0,  22.4,  21.7,   0.0,  0.32, 
 02/08/09, 16:00,  19.7,  99,  22.9,  22.3,  21.7,   0.0,  0.39, 
 02/08/09, 17:00,  19.0,  99,  22.4,  22.4,  21.7,  10.5,  0.13, 
 02/08/09, 18:00,  18.8,  99,  22.1,  22.3,  21.7,   2.5,  0.01, 
 02/08/09, 19:00,  18.6,  99,  22.0,  22.3,  21.7,   2.5,  0.00, 
 02/08/09, 20:00,  18.8,  99,  21.8,  22.3,  21.7,   1.5,  0.00, 
 02/08/09, 21:00,  18.6,  99,  21.8,  22.2,  21.7,   0.5,  0.00, 
 02/08/09, 22:00,  18.6,  99,  21.7,  22.1,  21.7,   0.0,  0.00, 
 02/08/09, 23:00,  18.5,  99,  21.6,  22.0,  21.7,   0.5,  0.00, 
 02/08/10, 00:00,  18.4,  99,  21.5,  22.0,  21.7,   0.0,  0.00, 
 02/08/10, 01:00,  18.2,  99,  21.4,  22.0,  21.7,   0.0,  0.00, 
 02/08/10, 02:00,  18.1,  99,  21.3,  21.9,  21.7,   0.5,  0.00, 
 02/08/10, 03:00,  17.9,  99,  21.2,  21.9,  21.7,   0.0,  0.00, 
 02/08/10, 04:00,  17.2,  99,  21.2,  21.8,  21.6,   0.0,  0.00, 
 02/08/10, 05:00,  16.7,  99,  21.0,  21.7,  21.6,   0.0,  0.00, 
 02/08/10, 06:00,  17.2,  99,  20.9,  21.6,  21.6,   0.0,  0.07, 
 02/08/10, 07:00,  18.0,  97,  20.8,  21.6,  21.6,   0.0,  0.53, 
 02/08/10, 08:00,  19.8,  89,  21.0,  21.6,  21.6,   0.0,  0.78, 
 02/08/10, 09:00,  19.1,  99,  21.2,  21.6,  21.6,   0.0,  1.00, 
 02/08/10, 10:00,  21.0,  97,  21.5,  21.5,  21.6,   0.0,  1.69, 
 02/08/10, 11:00,  22.0,  89,  22.0,  21.5,  21.5,   0.5,  2.19, 
 02/08/10, 12:00,  23.3,  78,  22.6,  21.6,  21.5,   0.0,  1.99, 
 02/08/10, 13:00,  23.1,  80,  23.3,  21.6,  21.5,   0.0,  2.16, 
 02/08/10, 14:00,  24.6,  68,  23.6,  21.7,  21.5,   0.0,  2.90, 
 02/08/10, 15:00,  23.9,  71,  23.7,  21.9,  21.5,   0.0,  2.07, 
 02/08/10, 16:00,  23.9,  68,  23.7,  22.0,  21.5,   0.0,  1.94, 
 02/08/10, 17:00,  22.9,  74,  23.9,  22.1,  21.4,   0.0,  1.22, 
 02/08/10, 18:00,  21.3,  81,  23.9,  22.2,  21.4,   0.0,  0.72, 
 02/08/10, 19:00,  19.2,  90,  23.6,  22.3,  21.4,   0.0,  0.10, 
 02/08/10, 20:00,  19.1,  92,  23.3,  22.4,  21.4,   0.0,  0.00, 
 02/08/10, 21:00,  18.5,  95,  23.0,  22.4,  21.4,   0.0,  0.00, 
 02/08/10, 22:00,  17.9,  99,  22.7,  22.4,  21.4,   0.0,  0.00, 
 02/08/10, 23:00,  17.5,  99,  22.4,  22.4,  21.4,   0.0,  0.00, 
 02/08/11, 00:00,  18.1,  95,  22.2,  22.3,  21.4,   0.0,  0.00, 
 02/08/11, 01:00,  18.5,  92,  22.0,  22.3,  21.4,   0.0,  0.00, 
 02/08/11, 02:00,  18.5,  92,  21.8,  22.2,  21.4,   0.0,  0.00, 
 02/08/11, 03:00,  18.8,  85,  21.7,  22.1,  21.4,   0.0,  0.00, 
 02/08/11, 04:00,  17.9,  92,  21.5,  22.0,  21.4,   0.0,  0.00, 
 02/08/11, 05:00,  17.2,  95,  21.4,  21.9,  21.4,   0.0,  0.00, 
 02/08/11, 06:00,  18.0,  86,  21.3,  21.8,  21.4,   0.0,  0.07, 
 02/08/11, 07:00,  19.6,  86,  21.2,  21.8,  21.4,   0.0,  0.56, 
 02/08/11, 08:00,  20.3,  84,  21.3,  21.8,  21.4,   0.0,  0.86, 
 02/08/11, 09:00,  20.3,  85,  21.5,  21.7,  21.4,   0.0,  1.34, 
 02/08/11, 10:00,  18.8,  99,  21.8,  21.7,  21.4,   0.0,  0.67, 
 02/08/11, 11:00,  20.0,  99,  22.0,  21.7,  21.4,   0.0,  1.12, 
 02/08/11, 12:00,  21.7,  89,  22.3,  21.7,  21.4,   0.0,  1.35, 
 02/08/11, 13:00,  21.6,  89,  22.6,  21.7,  21.4,   0.0,  1.52, 
 02/08/11, 14:00,  21.4,  95,  22.9,  21.8,  21.4,   0.0,  1.57, 
 02/08/11, 15:00,  22.6,  91,  23.1,  21.9,  21.4,   0.0,  1.28, 
 02/08/11, 16:00,  22.8,  87,  23.3,  21.8,  21.4,   0.0,  1.40, 
 02/08/11, 17:00,  21.7,  83,  23.6,  22.0,  21.4,   0.0,  1.19, 
 02/08/11, 18:00,  21.2,  89,  23.6,  22.1,  21.4,   0.0,  0.43, 
 02/08/11, 19:00,  19.9,  95,  23.5,  22.2,  21.3,   0.0,  0.06, 
 02/08/11, 20:00,  19.7,  93,  23.2,  22.3,  21.3,   0.0,  0.00, 
 02/08/11, 21:00,  18.8,  97,  22.9,  22.2,  21.3,   0.0,  0.00, 
 02/08/11, 22:00,  19.4,  92,  22.7,  22.3,  21.3,   0.0,  0.00, 
 02/08/11, 23:00,  19.1,  94,  22.4,  22.3,  21.3,   0.0,  0.00, 
 02/08/12, 00:00,  18.9,  95,  22.2,  22.3,  21.4,   0.0,  0.00, 
 02/08/12, 01:00,  18.4,  96,  22.0,  22.1,  21.4,   0.0,  0.00, 
 02/08/12, 02:00,  18.1,  99,  21.9,  22.2,  21.4,   0.0,  0.00, 
 02/08/12, 03:00,  18.3,  99,  21.7,  22.0,  21.4,   0.0,  0.00, 
 02/08/12, 04:00,  18.3,  96,  21.6,  21.9,  21.4,   0.0,  0.00, 
 02/08/12, 05:00,  18.1,  99,  21.4,  22.0,  21.4,   0.0,  0.00, 
 02/08/12, 06:00,  18.0,  99,  21.3,  21.8,  21.4,   0.0,  0.03, 
 02/08/12, 07:00,  18.8,  97,  21.2,  21.8,  21.4,   0.0,  0.38, 
 02/08/12, 08:00,  20.0,  96,  21.2,  21.8,  21.4,   0.0,  0.75, 
 02/08/12, 09:00,  21.7,  87,  21.4,  21.7,  21.4,   0.0,  1.69, 
 02/08/12, 10:00,  21.9,  87,  21.9,  21.7,  21.4,   0.0,  1.30, 
 02/08/12, 11:00,  20.1,  99,  22.3,  21.7,  21.3,   0.0,  0.69, 
 02/08/12, 12:00,  20.9,  99,  22.4,  21.7,  21.3,   0.0,  0.66, 
 02/08/12, 13:00,  22.2,  92,  22.6,  21.6,  21.3,   0.0,  1.52, 
 02/08/12, 14:00,  22.4,  85,  22.9,  21.8,  21.3,   0.0,  1.35, 
 02/08/12, 15:00,  21.3,  88,  23.1,  21.8,  21.3,   0.0,  0.90, 
 02/08/12, 16:00,  21.0,  89,  23.2,  21.8,  21.3,   0.0,  0.74, 
 02/08/12, 17:00,  20.3,  93,  23.2,  21.9,  21.3,   0.0,  0.43, 
 02/08/12, 18:00,  19.5,  97,  23.3,  22.1,  21.3,   0.0,  0.18, 
 02/08/12, 19:00,  18.9,  99,  23.1,  22.1,  21.3,   0.0,  0.03, 
 02/08/12, 20:00,  18.8,  99,  22.9,  22.2,  21.3,   0.0,  0.00, 
 02/08/12, 21:00,  18.6,  98,  22.7,  22.1,  21.3,   0.0,  0.00, 
 02/08/12, 22:00,  18.1,  99,  22.5,  22.1,  21.3,   0.0,  0.00, 
 02/08/12, 23:00,  18.0,  99,  22.3,  22.1,  21.3,   0.0,  0.00, 
 02/08/13, 00:00,  18.2,  96,  21.9,  22.1,  21.3,   0.0,  0.00, 
 02/08/13, 01:00,  17.7,  99,  21.8,  22.0,  21.3,   0.0,  0.00, 
 02/08/13, 02:00,  17.7,  99,  21.6,  22.0,  21.3,   0.0,  0.00, 
 02/08/13, 03:00,  17.7,  98,  21.5,  21.9,  21.3,   0.0,  0.00, 
 02/08/13, 04:00,  17.5,  97,  21.4,  21.8,  21.3,   0.0,  0.00, 
 02/08/13, 05:00,  17.3,  95,  21.2,  21.8,  21.3,   0.0,  0.00, 
 02/08/13, 06:00,  17.2,  94,  21.0,  21.7,  21.3,   0.0,  0.01, 
 02/08/13, 07:00,  18.2,  95,  20.9,  21.6,  21.3,   0.0,  0.24, 
 02/08/13, 08:00,  19.5,  88,  20.9,  21.6,  21.3,   0.0,  0.78, 
 02/08/13, 09:00,  21.5,  79,  21.2,  21.6,  21.3,   0.0,  2.21, 
 02/08/13, 10:00,  22.5,  73,  21.8,  21.5,  21.3,   0.0,  2.59, 
 02/08/13, 11:00,  22.9,  75,  22.5,  21.5,  21.3,   0.0,  1.25, 
 02/08/13, 12:00,  24.4,  69,  23.1,  21.6,  21.3,   0.0,  2.36, 
 02/08/13, 13:00,  25.9,  66,  23.7,  21.7,  21.3,   0.0,  2.50, 
 02/08/13, 14:00,  25.9,  60,  24.0,  21.8,  21.3,   0.0,  3.33, 
 02/08/13, 15:00,  24.7,  70,  24.0,  21.9,  21.3,   0.0,  1.86, 
 02/08/13, 16:00,  23.9,  68,  24.2,  22.0,  21.2,   0.0,  1.68, 
 02/08/13, 17:00,  23.3,  75,  24.3,  22.3,  21.2,   0.0,  1.10, 
 02/08/13, 18:00,  21.1,  83,  24.1,  22.3,  21.2,   0.0,  0.43, 
 02/08/13, 19:00,  20.1,  88,  23.9,  22.5,  21.2,   0.0,  0.06, 
 02/08/13, 20:00,  18.9,  94,  23.6,  22.5,  21.2,   0.0,  0.00, 
 02/08/13, 21:00,  19.4,  93,  23.3,  22.6,  21.2,   0.0,  0.00, 
 02/08/13, 22:00,  19.0,  94,  22.9,  22.6,  21.3,   0.0,  0.00, 
 02/08/13, 23:00,  18.7,  96,  22.7,  22.5,  21.3,   0.0,  0.00, 
 02/08/14, 00:00,  18.1,  97,  22.5,  22.5,  21.3,   0.0,  0.00, 
 02/08/14, 01:00,  17.7,  99,  22.3,  22.4,  21.3,   0.0,  0.00, 
 02/08/14, 02:00,  17.4,  99,  22.0,  22.4,  21.3,   0.0,  0.00, 
 02/08/14, 03:00,  17.3,  95,  21.8,  22.2,  21.3,   0.0,  0.00, 
 02/08/14, 04:00,  16.9,  96,  21.6,  22.1,  21.3,   0.0,  0.00, 
 02/08/14, 05:00,  17.0,  93,  21.4,  22.0,  21.3,   0.0,  0.00, 
 02/08/14, 06:00,  17.0,  95,  21.1,  21.9,  21.3,   0.0,  0.01, 
 02/08/14, 07:00,  19.7,  90,  21.0,  21.8,  21.3,   0.0,  0.42, 
 02/08/14, 08:00,  19.8,  88,  20.9,  21.8,  21.3,   0.0,  0.68, 
 02/08/14, 09:00,  21.7,  83,  21.2,  21.8,  21.3,   0.0,  1.56, 
 02/08/14, 10:00,  22.4,  80,  21.6,  21.6,  21.3,   0.0,  2.39, 
 02/08/14, 11:00,  22.1,  80,  22.3,  21.7,  21.3,   0.0,  0.98, 
 02/08/14, 12:00,  23.4,  70,  22.7,  21.7,  21.3,   0.0,  1.86, 
 02/08/14, 13:00,  22.0,  70,  23.2,  21.8,  21.3,   0.0,  1.66, 
 02/08/14, 14:00,  22.0,  74,  23.5,  21.8,  21.3,   0.0,  0.79, 
 02/08/14, 15:00,  22.7,  75,  23.6,  21.9,  21.3,   0.0,  1.02, 
 02/08/14, 16:00,  22.1,  81,  23.6,  22.0,  21.3,   0.0,  0.81, 
 02/08/14, 17:00,  21.7,  81,  23.6,  22.1,  21.3,   0.0,  0.67, 
 02/08/14, 18:00,  19.7,  96,  23.6,  22.3,  21.3,   0.0,  0.15, 
 02/08/14, 19:00,  18.9,  99,  23.4,  22.3,  21.3,   0.0,  0.00, 
 02/08/14, 20:00,  18.6,  99,  23.2,  22.4,  21.3,   0.0,  0.00, 
 02/08/14, 21:00,  18.4,  99,  22.9,  22.4,  21.3,   0.0,  0.00, 
 02/08/14, 22:00,  18.1,  99,  22.7,  22.4,  21.3,   0.0,  0.00, 
 02/08/14, 23:00,  17.9,  99,  22.5,  22.3,  21.3,   0.0,  0.00, 
 02/08/15, 00:00,  17.8,  99,  22.3,  22.3,  21.3,   0.0,  0.00, 
 02/08/15, 01:00,  17.7,  99,  22.0,  22.2,  21.3,   0.0,  0.00, 
 02/08/15, 02:00,  17.5,  99,  21.8,  22.1,  21.3,   0.0,  0.00, 
 02/08/15, 03:00,  17.5,  99,  21.7,  22.1,  21.3,   0.0,  0.00, 
 02/08/15, 04:00,  17.9,  97,  21.6,  22.0,  21.3,   0.0,  0.00, 
 02/08/15, 05:00,  17.9,  96,  21.5,  22.0,  21.3,   0.0,  0.00, 
 02/08/15, 06:00,  17.8,  97,  21.3,  21.8,  21.3,   0.0,  0.00, 
 02/08/15, 07:00,  17.5,  99,  21.2,  21.8,  21.3,   0.0,  0.06, 
 02/08/15, 08:00,  18.1,  98,  21.1,  21.8,  21.3,   1.0,  0.37, 
 02/08/15, 09:00,  18.4,  99,  21.1,  21.6,  21.3,   2.0,  0.42, 
 02/08/15, 10:00,  18.3,  99,  21.1,  21.6,  21.3,   3.5,  0.45, 
 02/08/15, 11:00,  18.6,  99,  21.2,  21.6,  21.3,   1.0,  0.69, 
 02/08/15, 12:00,  19.4,  99,  21.3,  21.4,  21.3,   0.5,  0.90, 
 02/08/15, 13:00,  19.0,  99,  21.6,  21.5,  21.3,   2.0,  0.59, 
 02/08/15, 14:00,  19.7,  99,  21.7,  21.5,  21.3,   0.5,  0.88, 
 02/08/15, 15:00,  18.4,  99,  21.8,  21.5,  21.3,   7.5,  0.30, 
 02/08/15, 16:00,  19.1,  99,  21.8,  21.6,  21.3,   0.5,  0.54, 
 02/08/15, 17:00,  18.8,  99,  21.8,  21.6,  21.3,   0.0,  0.47, 
 02/08/15, 18:00,  18.6,  99,  21.8,  21.6,  21.2,   1.0,  0.08, 
 02/08/15, 19:00,  18.4,  99,  21.8,  21.6,  21.2,   0.0,  0.00, 
 02/08/15, 20:00,  18.2,  99,  21.6,  21.6,  21.2,   0.0,  0.00, 
 02/08/15, 21:00,  17.5,  99,  21.5,  21.6,  21.2,   0.0,  0.00, 
 02/08/15, 22:00,  16.6,  99,  21.3,  21.6,  21.2,   0.0,  0.00, 
 02/08/15, 23:00,  16.4,  99,  21.1,  21.5,  21.2,   0.0,  0.00, 
 02/08/16, 00:00,  16.1,  99,  20.8,  21.5,  21.2,   0.0,  0.00, 
 02/08/16, 01:00,  15.9,  99,  20.7,  21.4,  21.2,   0.0,  0.00, 